Wind_Speed
17 17 17 17 17 16 13 11 13 14 13 15 9 2 3 4 5 1 8 12 15 15 10 11 19 29 29 28 15 16 14 13 9 8 9 11 12 7 4 6 10 1 2 8 13 21 17
17 17 17 17 17 17 15 13 10 11 13 13 11 5 2 2 7 7 6 6 6 17 6 9 8 16 31 22 27 11 11 12 13 12 13 12 7 6 3 4 2 7 11 13 15 19 13
17 17 17 17 17 17 17 16 14 10 13 14 14 9 5 3 4 5 6 4 7 10 11 2 11 9 25 20 25 10 9 13 14 12 12 9 5 4 6 5 6 8 6 9 2 5 5
18 18 18 17 17 17 16 16 15 13 10 12 13 12 7 2 3 2 7 6 4 4 15 6 2 8 6 21 35 11 9 8 10 9 13 9 6 3 7 13 5 5 2 5 6 6 7
19 19 19 19 19 19 18 18 16 14 9 13 12 12 7 4 1 4 8 4 2 3 3 10 8 3 4 11 29 31 8 7 5 3 8 8 7 5 10 4 4 7 4 8 9 13 6
21 21 21 20 20 19 19 18 17 14 11 8 13 11 6 7 2 1 11 12 14 11 2 4 11 1 11 14 15 32 4 9 8 3 0 7 7 5 7 6 5 6 5 6 11 8 9
22 22 22 22 22 21 19 19 20 16 11 4 13 10 6 6 3 1 9 14 5 1 11 9 6 3 10 17 10 32 14 3 6 9 5 5 9 7 7 1 5 6 5 8 8 8 7
24 25 26 26 25 23 21 20 22 18 11 5 11 10 7 3 5 0 6 8 5 4 6 5 6 8 11 14 10 30 20 4 7 4 8 6 4 4 6 4 7 1 2 5 11 2 7
23 25 27 28 29 28 25 23 23 18 10 7 12 10 9 2 4 4 3 7 4 8 3 3 7 7 9 7 6 20 27 5 6 5 4 4 4 6 5 4 7 2 2 4 8 14 3
22 23 25 27 30 32 31 28 25 17 9 8 13 10 9 6 4 8 2 3 7 7 4 6 4 6 8 1 3 20 21 8 6 4 3 3 4 6 4 2 3 4 6 7 13 8 3
20 22 24 27 30 31 32 32 29 17 8 11 13 12 11 8 7 6 3 4 8 5 4 5 4 6 6 7 9 15 16 7 3 4 5 4 5 5 3 4 3 7 9 12 7 3 1
19 22 24 27 28 30 32 33 33 19 5 10 17 19 15 11 10 7 3 7 8 4 2 3 4 8 5 7 6 13 10 15 3 1 1 5 4 2 5 7 2 7 4 1 1 1 3
17 21 24 26 27 29 31 33 32 26 4 1 7 19 22 15 10 7 4 6 4 6 3 7 5 6 2 6 5 9 5 8 5 7 8 8 4 4 4 5 4 9 5 3 5 5 2
17 21 23 26 26 28 29 33 31 30 11 4 7 11 24 17 15 8 2 3 8 0 2 1 3 3 4 7 3 8 3 5 4 3 3 4 7 5 6 4 4 4 4 4 2 3 4
16 19 22 25 27 28 28 32 31 31 14 4 6 6 22 17 15 9 2 6 5 2 3 6 4 4 4 2 1 6 3 1 4 2 3 4 6 5 2 2 3 4 5 3 3 0 1
16 18 21 24 26 28 28 31 33 31 17 6 3 3 20 15 13 9 6 4 2 2 1 1 3 2 3 6 7 6 4 1 2 0 3 3 4 3 3 2 3 4 3 3 3 5 5
16 18 20 23 26 26 27 29 30 31 23 4 2 0 20 12 7 11 4 1 1 0 1 3 1 3 2 4 1 4 5 2 1 2 3 4 2 5 0 3 3 4 4 6 5 3 3
16 18 19 21 25 25 26 27 28 29 26 5 2 3 17 9 7 5 3 1 1 1 1 1 1 1 2 1 2 2 3 4 1 1 1 4 3 5 6 3 3 4 4 3 4 5 2
15 18 19 20 22 24 23 24 27 27 27 10 2 3 11 8 3 2 1 2 1 2 3 2 2 3 2 3 2 3 3 2 1 2 4 4 1 4 5 2 1 1 1 3 4 3 4
15 18 18 19 21 22 22 21 25 24 25 11 2 3 7 11 8 4 1 1 1 2 2 3 3 2 1 2 3 3 3 2 2 0 2 4 2 5 5 7 2 2 4 3 4 2 3
17 17 17 18 19 20 22 20 21 22 20 7 6 3 2 3 4 3 1 3 2 2 1 3 2 5 5 1 2 4 4 4 2 2 1 3 3 4 8 15 4 8 7 6 7 5 5
20 19 17 18 17 19 20 19 17 18 17 19 5 2 1 3 1 1 1 3 2 2 4 3 3 2 6 5 8 5 4 3 5 2 2 2 3 3 6 2 6 7 10 10 6 4 9
22 21 19 18 17 17 17 20 18 16 15 9 11 9 1 1 1 2 3 3 3 2 5 6 7 4 2 12 16 12 9 5 2 4 1 1 1 3 5 2 6 4 6 8 4 4 6
24 22 20 20 18 18 15 17 16 15 14 10 11 8 4 2 2 4 5 5 6 7 4 4 8 4 3 2 6 1 1 1 3 2 3 4 3 2 4 7 3 3 4 5 7 7 11
27 25 22 20 20 18 17 13 14 16 13 12 11 9 2 2 5 7 8 7 6 7 6 7 8 7 4 2 3 4 1 1 1 3 0 1 4 1 0 2 8 5 4 6 6 7 7
25 22 21 21 19 20 19 15 14 16 13 11 12 11 5 3 6 7 3 6 3 3 2 4 6 7 3 2 2 3 4 2 3 1 3 3 4 3 2 1 5 5 3 5 3 4 8
27 26 23 23 22 22 21 21 20 17 15 15 16 16 11 7 10 8 7 4 6 3 3 3 5 5 7 2 1 3 4 2 3 5 6 3 2 4 4 4 9 5 8 8 4 5 4
28 29 30 26 25 25 24 24 25 22 19 17 19 19 18 8 17 22 13 13 9 7 3 7 3 3 2 2 3 3 3 3 1 4 7 8 8 4 2 0 8 14 8 8 4 6 2
27 32 33 30 29 27 27 27 28 26 22 22 22 21 21 19 14 27 28 27 26 24 11 12 4 7 11 3 1 2 3 1 2 4 1 3 7 5 10 7 3 32 8 19 4 7 13
Wind_Direction
44 42 41 41 40 38 32 31 34 33 28 28 29 56 56 198 199 143 44 49 46 42 62 55 51 39 33 48 13 347 355 1 4 4 11 12 20 12 17 341 339 104 285 313 296 296 285
39 36 34 34 35 34 31 25 16 22 22 22 19 18 1 305 220 231 243 22 33 19 49 57 37 38 33 54 5 5 20 30 40 34 33 28 15 4 342 314 330 311 300 285 291 276 267
38 35 33 30 28 27 27 24 18 13 17 17 16 12 2 0 194 229 243 239 14 36 33 149 44 50 37 35 17 19 21 40 37 42 43 36 31 11 330 316 323 297 316 321 298 307 260
38 35 33 30 27 23 23 23 19 13 11 13 14 13 9 46 159 247 226 222 319 176 46 45 7 37 73 27 21 26 41 31 34 55 55 53 53 70 7 315 5 359 20 351 311 330 294
37 35 33 29 27 22 17 15 13 15 6 9 11 12 13 7 253 281 198 163 15 173 256 19 17 43 44 352 10 16 36 37 22 36 62 56 48 51 11 24 20 13 318 327 315 330 346
37 34 30 26 23 21 17 16 13 7 8 11 12 11 10 3 356 64 169 147 70 56 258 310 15 58 10 345 359 7 32 41 38 74 352 36 38 37 19 30 2 313 337 319 293 311 338
37 32 27 22 18 16 16 16 11 4 3 10 10 8 13 15 24 119 182 193 275 111 67 76 58 77 346 355 18 11 20 54 28 35 28 10 39 14 341 268 227 278 253 257 283 297 340
43 38 32 28 23 16 12 11 8 7 13 35 8 7 7 25 23 44 179 192 221 160 106 69 32 22 1 358 360 8 17 55 42 42 347 25 25 306 313 339 344 9 329 297 290 260 330
42 38 34 32 28 23 15 10 7 11 24 44 10 14 10 321 359 352 245 237 235 178 99 41 24 7 1 358 35 360 13 29 45 41 20 82 265 323 9 347 360 306 184 312 319 321 333
37 33 31 29 27 24 21 13 9 16 35 42 12 18 20 23 352 342 254 209 173 170 76 347 358 14 3 75 49 4 13 18 40 30 350 234 300 348 31 309 27 308 186 310 305 327 312
38 34 27 24 23 21 19 15 12 15 45 34 22 23 18 18 3 354 328 168 166 161 41 329 341 350 5 61 327 4 4 23 110 325 58 271 330 346 347 319 122 244 318 289 272 246 5
34 28 23 15 16 18 15 14 10 10 44 49 49 33 17 17 13 13 110 137 142 56 291 14 330 355 11 27 23 351 17 24 35 21 341 250 297 189 228 312 164 301 353 87 286 59 46
26 21 17 12 10 13 12 11 8 6 1 96 22 15 14 15 14 26 124 146 46 87 348 335 324 8 3 335 357 21 32 15 44 13 11 334 290 306 331 328 13 13 25 355 5 16 256
19 12 12 14 10 8 9 10 8 8 3 295 312 349 6 15 15 24 119 68 64 211 354 324 321 311 27 360 33 354 54 28 42 61 64 38 340 14 347 130 224 3 98 123 247 352 299
12 11 9 6 8 7 9 12 10 6 6 340 327 340 3 11 10 12 92 51 186 254 258 335 308 21 339 23 339 19 54 346 225 163 106 20 280 306 238 153 135 305 39 193 108 16 334
11 10 9 7 6 8 7 10 12 7 5 343 346 336 1 9 14 25 67 117 201 242 295 300 33 32 321 327 5 33 351 277 35 106 176 204 320 220 282 108 25 109 167 30 20 29 348
357 357 1 4 2 3 6 5 9 8 5 16 17 279 5 14 26 47 86 144 185 140 22 37 225 290 277 312 66 323 282 256 208 95 99 134 108 282 83 23 195 344 4 39 107 96 141
342 346 349 354 357 356 358 359 3 7 8 9 13 44 8 17 35 50 77 121 176 162 83 41 122 218 208 257 284 267 266 221 199 180 244 196 157 282 240 251 144 122 175 135 104 283 70
326 332 340 342 346 351 355 2 4 7 6 10 43 50 24 38 79 28 146 134 195 166 206 176 225 206 166 213 338 198 260 231 232 193 173 188 267 326 350 21 15 161 209 116 100 83 209
309 316 323 329 337 342 348 356 1 7 7 18 34 33 33 54 74 107 110 359 297 205 202 190 198 157 151 249 191 285 271 216 234 189 93 173 157 191 210 232 143 295 199 203 135 119 180
297 302 311 318 326 334 343 349 3 11 17 17 35 73 35 356 24 90 135 187 307 312 204 208 230 218 167 307 320 234 243 308 171 340 71 114 239 201 251 264 237 245 224 185 177 204 178
288 293 299 305 313 324 329 341 353 7 12 35 41 338 99 116 102 220 323 235 235 288 172 242 183 139 164 196 201 246 147 199 227 20 71 349 258 348 288 214 198 258 240 209 207 209 268
280 284 290 296 303 308 317 327 344 356 13 39 30 17 46 135 65 76 230 216 237 160 232 236 206 141 203 242 260 274 253 251 223 135 124 54 61 33 268 345 296 307 219 182 194 214 165
276 275 279 286 292 296 302 322 335 341 359 12 19 4 345 280 186 205 209 202 219 211 216 228 215 173 223 226 297 293 244 198 179 114 181 134 83 82 281 332 357 235 156 170 206 224 216
277 269 272 278 282 287 282 300 314 326 332 344 351 355 317 263 238 264 238 231 253 248 230 235 233 226 220 282 44 4 304 248 136 40 315 124 114 24 33 248 297 320 191 185 172 282 196
273 268 272 276 278 278 278 276 291 304 309 311 313 322 294 252 237 258 207 226 234 224 300 227 223 216 203 130 91 206 236 186 236 218 65 82 90 121 87 200 238 238 237 170 131 296 203
264 262 263 270 272 275 278 270 272 290 292 298 295 297 288 241 259 248 224 210 187 196 233 179 179 169 184 105 199 203 256 142 230 187 170 152 179 196 195 245 284 223 162 144 87 237 165
254 261 262 264 267 270 273 272 266 273 279 279 285 288 276 248 274 272 253 232 234 203 198 170 140 186 123 146 165 236 203 228 223 186 180 171 158 197 95 153 282 163 124 170 202 147 302
261 258 262 260 259 261 265 269 269 264 269 271 271 281 284 251 268 285 275 272 265 258 246 196 241 174 194 114 214 145 244 133 179 266 50 266 201 179 189 215 219 186 231 204 195 300 315
Height
1568 1566 1565 1562 1560 1558 1556 1554 1553 1551 1548 1546 1544 1544 1543 1543 1543 1543 1543 1543 1542 1540 1539 1538 1535 1534 1530 1527 1534 1530 1527 1524 1521 1519 1517 1515 1514 1515 1516 1515 1514 1514 1513 1511 1510 1507 1504
1570 1568 1567 1564 1561 1560 1558 1556 1553 1551 1549 1547 1545 1543 1543 1542 1542 1543 1543 1544 1543 1541 1539 1539 1537 1536 1532 1529 1534 1529 1527 1524 1521 1519 1518 1517 1517 1518 1519 1518 1518 1514 1511 1508 1502 1500 1500
1572 1570 1568 1566 1563 1561 1559 1557 1554 1552 1550 1548 1546 1544 1542 1541 1541 1542 1542 1543 1543 1542 1539 1538 1538 1536 1535 1540 1535 1530 1528 1525 1523 1522 1521 1520 1520 1521 1520 1518 1516 1514 1511 1503 1502 1499 1499
1574 1572 1570 1567 1565 1562 1559 1556 1554 1552 1550 1549 1547 1544 1543 1541 1541 1541 1541 1542 1543 1542 1540 1539 1538 1536 1537 1538 1535 1530 1528 1526 1525 1524 1523 1521 1521 1521 1521 1518 1516 1516 1514 1513 1500 1500 1496
1576 1574 1572 1569 1566 1563 1560 1558 1555 1552 1550 1549 1547 1544 1543 1542 1541 1541 1541 1543 1541 1540 1541 1540 1539 1537 1540 1539 1535 1532 1529 1527 1526 1525 1524 1524 1523 1523 1522 1522 1526 1528 1526 1518 1507 1501 1500
1579 1577 1574 1571 1567 1564 1561 1558 1555 1552 1550 1548 1547 1544 1543 1541 1541 1540 1540 1542 1541 1541 1541 1541 1541 1543 1542 1541 1538 1534 1530 1529 1527 1525 1525 1524 1524 1527 1525 1529 1533 1534 1533 1525 1517 1504 1501
1582 1579 1576 1573 1569 1565 1562 1559 1555 1552 1549 1548 1547 1545 1542 1541 1540 1540 1540 1542 1546 1545 1543 1543 1546 1544 1543 1541 1538 1535 1530 1530 1528 1527 1530 1528 1530 1538 1532 1531 1531 1528 1524 1524 1512 1506 1503
1584 1582 1579 1575 1571 1567 1564 1559 1554 1550 1548 1547 1546 1545 1543 1541 1540 1540 1540 1541 1541 1543 1545 1545 1545 1544 1542 1540 1538 1536 1532 1531 1531 1533 1531 1533 1541 1533 1530 1527 1527 1527 1535 1528 1509 1503 1504
1587 1584 1581 1577 1573 1569 1565 1560 1554 1550 1548 1547 1546 1544 1543 1541 1540 1540 1539 1540 1539 1541 1542 1546 1545 1544 1543 1542 1542 1539 1535 1533 1533 1534 1537 1536 1534 1530 1529 1528 1528 1530 1534 1524 1517 1506 1501
1589 1587 1584 1580 1575 1571 1566 1560 1555 1550 1549 1548 1546 1544 1542 1541 1541 1538 1537 1538 1539 1541 1552 1549 1547 1547 1545 1541 1543 1541 1536 1536 1535 1538 1537 1536 1530 1530 1536 1535 1527 1530 1520 1519 1517 1514 1513
1591 1588 1586 1582 1577 1572 1567 1562 1557 1552 1550 1549 1546 1545 1542 1539 1539 1538 1538 1537 1538 1542 1561 1551 1548 1546 1544 1545 1546 1543 1538 1535 1540 1539 1541 1537 1534 1533 1532 1526 1528 1526 1518 1517 1514 1513 1514
1593 1590 1586 1583 1579 1574 1569 1564 1559 1554 1551 1549 1547 1545 1542 1540 1539 1538 1536 1537 1540 1547 1567 1551 1549 1548 1546 1546 1546 1544 1542 1539 1540 1540 1539 1540 1535 1535 1532 1524 1524 1521 1518 1514 1513 1518 1523
1594 1592 1588 1584 1581 1576 1571 1565 1560 1554 1551 1549 1547 1545 1542 1540 1539 1537 1537 1539 1544 1556 1555 1557 1556 1554 1555 1555 1550 1550 1552 1557 1561 1553 1564 1547 1537 1533 1532 1526 1526 1526 1528 1526 1519 1524 1518
1595 1593 1589 1585 1582 1577 1572 1566 1560 1554 1550 1549 1547 1546 1544 1540 1537 1536 1537 1540 1551 1561 1561 1562 1559 1557 1555 1558 1555 1554 1554 1564 1564 1566 1577 1572 1540 1539 1534 1540 1542 1541 1545 1546 1541 1529 1528
1596 1594 1591 1587 1583 1577 1572 1567 1561 1555 1551 1549 1548 1547 1544 1541 1538 1536 1537 1557 1574 1568 1568 1566 1559 1556 1556 1558 1561 1557 1564 1568 1567 1567 1569 1576 1558 1538 1536 1535 1539 1537 1545 1547 1557 1562 1545
1595 1594 1591 1588 1584 1578 1573 1568 1562 1556 1551 1548 1548 1547 1545 1542 1539 1537 1539 1563 1568 1567 1566 1566 1563 1566 1563 1562 1562 1564 1562 1562 1562 1562 1563 1571 1569 1538 1536 1535 1537 1539 1545 1544 1554 1548 1540
1595 1593 1591 1588 1585 1580 1574 1569 1564 1558 1551 1548 1548 1547 1547 1543 1542 1541 1561 1567 1566 1566 1566 1567 1566 1567 1568 1568 1571 1570 1566 1561 1561 1562 1563 1570 1577 1541 1537 1549 1552 1544 1548 1559 1563 1573 1565
1594 1592 1590 1588 1585 1581 1576 1571 1565 1559 1553 1550 1548 1549 1549 1546 1547 1556 1564 1564 1565 1565 1565 1566 1567 1568 1569 1573 1574 1570 1565 1561 1559 1559 1563 1565 1573 1564 1547 1550 1548 1553 1558 1563 1554 1562 1581
1593 1591 1589 1587 1584 1581 1577 1572 1567 1559 1553 1550 1550 1551 1551 1547 1558 1563 1564 1564 1564 1564 1564 1565 1566 1567 1567 1570 1574 1571 1563 1558 1558 1558 1561 1561 1567 1560 1534 1550 1548 1552 1562 1567 1569 1568 1577
1591 1590 1588 1586 1583 1581 1577 1572 1568 1562 1556 1552 1551 1553 1553 1552 1558 1561 1563 1564 1563 1563 1563 1563 1564 1564 1566 1566 1568 1571 1561 1557 1557 1557 1557 1557 1569 1556 1548 1534 1542 1549 1551 1559 1555 1562 1564
1588 1587 1586 1584 1582 1580 1577 1573 1569 1565 1560 1555 1553 1558 1558 1561 1560 1561 1563 1563 1561 1562 1563 1562 1562 1562 1567 1573 1574 1568 1561 1558 1556 1556 1557 1559 1563 1557 1544 1534 1537 1535 1538 1550 1547 1546 1537
1584 1583 1583 1582 1580 1578 1576 1573 1569 1566 1563 1560 1559 1559 1559 1559 1560 1562 1562 1564 1561 1560 1560 1561 1564 1559 1564 1568 1559 1564 1564 1566 1558 1557 1559 1560 1557 1554 1541 1529 1533 1530 1526 1530 1537 1540 1537
1580 1580 1579 1578 1577 1576 1574 1572 1569 1567 1565 1562 1561 1559 1558 1561 1560 1562 1562 1560 1560 1559 1555 1555 1556 1559 1562 1553 1553 1553 1554 1554 1554 1558 1562 1565 1562 1561 1539 1529 1530 1519 1514 1521 1527 1526 1518
1574 1575 1574 1574 1574 1573 1571 1570 1569 1567 1565 1564 1562 1560 1559 1561 1560 1558 1555 1555 1554 1554 1556 1552 1552 1553 1551 1551 1551 1550 1550 1551 1552 1554 1554 1565 1572 1575 1551 1532 1517 1497 1502 1504 1507 1505 1504
1568 1568 1569 1569 1569 1568 1567 1568 1567 1566 1565 1563 1561 1560 1558 1558 1556 1553 1552 1551 1550 1549 1550 1547 1547 1548 1547 1548 1551 1555 1551 1551 1553 1553 1554 1555 1566 1571 1566 1568 1516 1497 1502 1503 1501 1489 1487
1561 1562 1563 1563 1563 1563 1563 1563 1563 1563 1561 1560 1559 1558 1556 1555 1549 1547 1547 1547 1547 1546 1546 1543 1544 1544 1546 1546 1550 1549 1536 1534 1543 1552 1556 1557 1560 1565 1579 1555 1525 1492 1495 1494 1494 1499 1479
1553 1554 1556 1557 1558 1558 1558 1558 1557 1557 1557 1556 1555 1554 1552 1549 1543 1542 1542 1542 1541 1542 1541 1540 1540 1542 1544 1549 1552 1549 1537 1542 1536 1544 1557 1556 1557 1563 1561 1561 1515 1489 1489 1493 1502 1486 1476
1545 1546 1547 1550 1551 1551 1551 1552 1551 1551 1551 1550 1549 1549 1548 1542 1537 1535 1535 1534 1534 1536 1535 1535 1538 1538 1543 1550 1550 1544 1546 1539 1541 1528 1534 1534 1550 1554 1565 1565 1511 1482 1490 1490 1474 1472 1474
1537 1538 1539 1540 1541 1543 1544 1545 1544 1543 1544 1544 1542 1542 1540 1538 1532 1529 1525 1525 1526 1526 1527 1528 1524 1523 1523 1531 1540 1539 1537 1544 1535 1521 1517 1521 1502 1508 1507 1487 1471 1472 1468 1467 1469 1470 1471